Regional Weather Roundup
Issued by NWS Albany, NY

Home | Current Version | Previous Version | Text Only | Print | Product List | Glossary On
Versions: 1 2 3 4 5 6 7 8 9 10 11 12 13 14 15 16 17 18 19 20 21 22 23 24 25 26 27 28 29 30 31 32 33 34 35 36 37 38 39 40 41 42 43 44 45 46 47 48 49 50
363
ASUS41 KALY 181610
RWRALY

NEW YORK STATE HOURLY WEATHER ROUNDUP
NATIONAL WEATHER SERVICE ALBANY NY
1100 AM EST WED JAN 18 2017

NOTE: "FAIR" INDICATES FEW OR NO CLOUDS BELOW 12,000 FEET WITH NO
SIGNIFICANT WEATHER AND/OR NO OBSTRUCTIONS TO VISIBILITY.

NYZ032-033-038>043-046>054-057>066-NYZ062>081-082-084-181700-
EAST


CITY           SKY/WX    TMP DP  RH WIND       PRES   REMARKS
ALBANY         DRZL/FOG  35  32  88 CALM      29.97S VSB 1
GLENS FALLS    CLOUDY    34  32  92 CALM      29.96S FOG
POUGHKEEPSIE   CLOUDY    37  36  96 N6        29.94F FOG     WCI  32
NEWBURGH       CLOUDY    37  37 100 CALM      29.95F FOG
MONTGOMERY     CLOUDY    39  36  89 N8        29.93S WCI  33
WHITE PLAINS   CLOUDY    39  36  89 N8        29.90F FOG     WCI  33
ISLIP          DRIZZLE   39  39 100 N10       29.90F FOG     WCI  32
NEW YORK CITY  CLOUDY    42  37  82 NE10      29.93F
CENTRAL PARK   CLOUDY    40  38  93 MISG      29.96S
$$

NYZ005>009-017-018-044>046-055-056-181700-
CENTRAL


CITY           SKY/WX    TMP DP  RH WIND       PRES   REMARKS
FULTON         CLOUDY    38  36  92 W10       29.94R FOG     WCI  31
SYRACUSE       DRIZZLE   37  37 100 W8        29.94F FOG     WCI  31
ROME           LGT RAIN  35  35 100 CALM      29.96R VSB 1
ELMIRA         CLOUDY    39  37  92 CALM      29.94R FOG
BINGHAMTON     FOG       35  35 100 W5        29.90R VSB<1/4 WCI  31
MONTICELLO     CLOUDY    34  34 100 CALM      29.92F
$$

NYZ026>034-041>043-087-181700-
NORTH


CITY           SKY/WX    TMP DP  RH WIND       PRES   REMARKS
WATERTOWN      CLOUDY    34  34 100 W8        29.93R FOG     WCI  27
FORT DRUM      NOT AVBL
OGDENSBURG     CLOUDY    32  32  99 NW3       29.91R FOG
MASSENA        CLOUDY    29  28  96 NE7       29.93R FOG     WCI  22
SARANAC LAKE   CLOUDY    33  31  92 W3        29.84R
PLATTSBURGH    NOT AVBL
$$

NYZ001>004-010>016-019>021-085-181700-
WEST


CITY           SKY/WX    TMP DP  RH WIND       PRES   REMARKS
NIAGARA FALLS  CLOUDY    38  34  85 W13       29.98R WCI  30
BUFFALO        CLOUDY    36  34  92 W14G22    29.99R WCI  27
DUNKIRK        CLOUDY    36  35  96 SW14      30.03R FOG     WCI  27
JAMESTOWN      CLOUDY    36  30  80 W15       29.98R WCI  26
WELLSVILLE     CLOUDY    37  33  85 W16       29.94R WCI  28
ROCHESTER      DRIZZLE   38  36  92 W13       29.97R FOG     WCI  30
PENN YAN       CLOUDY    40  32  73 W8        29.94R WCI  34
$$

             KEY
       WCI = WIND CHILL INDEX
       VSB = VISIBILITY
       HX  = HEAT INDEX
$$




USA.gov is the U.S. government's official web portal to all federal, state and local government web resources and services.